Regional Weather Roundup
Issued by NWS

Home | Current Version | Previous Version | Text Only | Print | Product List | Glossary Off
Versions: 1 2 3 4 5 6 7 8 9 10 11 12 13 14 15 16 17 18 19 20 21 22 23 24 25 26 27 28 29 30 31 32 33 34 35 36 37 38 39 40 41 42 43 44 45 46 47 48 49 50

000
ASUS43 KBIS 070210
RWRND

NORTH DAKOTA REGIONAL WEATHER ROUNDUP
NATIONAL WEATHER SERVICE BISMARCK ND
900 PM CDT MON JUL 06 2015

NOTE: "FAIR" INDICATES FEW OR NO CLOUDS BELOW 12,000 FEET WITH NO
SIGNIFICANT WEATHER AND/OR OBSTRUCTIONS TO VISIBILITY.


NDZ001>003-009>011-017-070300-
NORTHWEST NORTH DAKOTA

CITY           SKY/WX    TMP DP  RH WIND       PRES   REMARKS
WILLISTON      CLEAR     67  47  48 NE9       30.16S
MINOT          CLEAR     62  49  62 N3        30.15S
MINOT AFB      CLEAR     66  46  47 N5        30.14F
$$

NDZ018>021-031>035-040>046-070300-
SOUTHWEST NORTH DAKOTA

CITY           SKY/WX    TMP DP  RH WIND       PRES   REMARKS
BISMARCK       PTCLDY    64  50  60 NE8       30.15F
DICKINSON      CLEAR     63  52  67 NE7       30.15S HAZE
GARRISON         N/A     63  50  62 NE5       30.15F
HETTINGER ARPT PTCLDY    64  54  69 NE8       30.17R
$$

NDZ004>008-012>016-024-026-027-054-070300-
NORTHEAST NORTH DAKOTA

CITY           SKY/WX    TMP DP  RH WIND       PRES   REMARKS
GRAND FORKS    CLEAR     58  47  66 N6        30.12S
GRND FRKS AFB  CLEAR     58  48  70 N6        30.13S
DEVILS LAKE    CLEAR     61  46  59 NE7       30.13S
$$

NDZ022-023-025-028>030-036>039-047>053-070300-
SOUTHEAST NORTH DAKOTA

CITY           SKY/WX    TMP DP  RH WIND       PRES   REMARKS
FARGO          CLEAR     61  46  57 N13       30.10S
JAMESTOWN      CLEAR     61  47  59 N9        30.12S
$$



USA.gov is the U.S. government's official web portal to all federal, state and local government web resources and services.